Location: Breitenfeld
(46.8500°N, 15.6333°E)
Time: 10:40:08
(UTC+00:00)

Transit 4B - Pass Details

Date: 02 June 2022
Orbit: 948 x 1097 km, 32.4° (Epoch: 01 July)

Event Time Altitude Azimuth Distance (km) Brightness Sun altitude
Exits shadow 01:05:50 21° 201° (SSW) 2,094 9.6 -15.0°
Maximum altitude 01:07:33 23° 180° (S) 1,975 9.6 -14.8°
Drops below altitude 10° 01:12:32 10° 130° (SE) 2,725 10.8 -14.4°
Sets 01:15:41 0° 117° (ESE) 3,650 11.6 -14.1°
